Location: Nairn
(57.5833°N, 3.8667°W)
Time: 09:35:19
(UTC+00:00)

Vanguard 1 - Pass Details

Date: 26 November 2020
Orbit: 649 x 3834 km, 34.3° (Epoch: 15 January)

Event Time Altitude Azimuth Distance (km) Brightness Sun altitude
Rises 07:33:35 0° 227° (SW) 4,232 13.1 -6.3°
Reaches altitude 10° 07:36:54 10° 211° (SSW) 3,660 13.0 -5.9°
Maximum altitude 07:43:46 21° 167° (SSE) 3,626 13.6 -5.2°
Drops below altitude 10° 07:53:41 10° 126° (SE) 5,518 15.9 -4.0°
Sets 08:00:27 0° 114° (ESE) 7,108 16.7 -3.3°
